Location: Bucharest
(44.4268°N, 26.1025°E)
Time: 13:02:22
(UTC+03:00)

CAS-4A - Visible Passes

Search period start: 04 July 2022 00:00
Search period end: 14 July 2022 00:00
Orbit: 523 x 536 km, 43.0° (Epoch: 03 July)

Date Brightness Start Highest point End Pass type
(mag) Time Alt. Az. Time Alt. Az. Time Alt. Az.
04 Jul ? 02:49:02 47° SSE 02:49:02 47° SSE 02:52:45 10° E visible
04 Jul ? 04:24:40 10° W 04:28:42 74° S 04:32:44 10° E visible
05 Jul ? 02:36:45 49° SE 02:36:45 49° SE 02:40:14 10° E visible
05 Jul ? 04:12:08 10° W 04:16:09 73° S 04:20:11 10° E visible
06 Jul ? 02:24:31 47° ESE 02:24:31 47° ESE 02:27:41 10° E visible
06 Jul ? 03:59:42 11° W 04:03:36 72° S 04:07:38 10° ESE visible
07 Jul ? 02:12:20 41° ESE 02:12:20 41° ESE 02:15:09 10° E visible
07 Jul ? 03:47:31 13° W 03:51:03 69° S 03:55:04 10° ESE visible
08 Jul ? 02:00:16 32° E 02:00:16 32° E 02:02:36 10° E visible
08 Jul ? 03:35:28 17° W 03:38:29 65° S 03:42:29 10° ESE visible
09 Jul ? 01:48:28 23° E 01:48:28 23° E 01:50:02 10° E visible
09 Jul ? 03:23:42 24° W 03:25:55 60° SSW 03:29:53 10° ESE visible
09 Jul ? 05:02:13 10° W 05:05:30 24° SSW 05:08:46 10° SSE visible
10 Jul ? 01:37:11 12° E 01:37:11 12° E 01:37:28 10° E visible
10 Jul ? 03:12:28 44° WSW 03:13:20 55° SSW 03:17:16 10° ESE visible
10 Jul ? 04:49:50 10° W 04:52:51 20° SSW 04:55:52 10° SSE visible
10 Jul ? 21:59:36 10° S 22:01:43 14° SE 22:02:40 13° SE visible
10 Jul ? 23:37:15 10° SW 23:38:04 15° SW 23:38:04 15° SW visible
11 Jul ? 03:02:14 32° SE 03:02:14 32° SE 03:04:38 10° ESE visible
11 Jul ? 04:37:36 10° WSW 04:40:11 17° SSW 04:42:52 10° S visible
11 Jul ? 21:46:27 10° S 21:49:03 17° SSE 21:51:40 10° ESE visible
11 Jul ? 23:24:35 10° WSW 23:28:16 49° S 23:28:16 49° S visible
12 Jul ? 04:28:41 13° SSW 04:28:41 13° SSW 04:29:44 10° S visible
12 Jul ? 21:33:26 10° SSW 21:36:23 20° SSE 21:39:20 10° E visible
12 Jul ? 23:11:57 10° WSW 23:15:53 55° SSE 23:17:19 34° ESE visible
13 Jul ? 00:51:45 10° W 00:52:33 15° W 00:52:33 15° W visible
13 Jul ? 22:59:20 10° WSW 23:03:18 60° SSE 23:05:39 23° E visible
